Tracking 25710 objects as of 6-Jul-2022
HD Live streaming from Space Station
objects crossing your sky now

FENGYUN 1C DEB

Track FENGYUN 1C DEB now!
10-day predictions


NORAD ID: 32095
Int'l Code: 1999-025CQM
Perigee: 794.2 km
Apogee: 912.7 km
Inclination: 98.8 °
Period: 101.9 minutes
Semi major axis: 7224 km
RCS: 0.0116 m2 (small)
Launch date: May 10, 1999
Source: People's Republic of China (PRC)
Launch site: Taiyaun Space Center, China (TSC)

Note: This is SATELLITE DEBRIS
aabbcc
Your satellite tracking list
Your tracking list is empty




NASA's NSSDC Master Catalog

Two Line Element Set (TLE):
1 32095U 99025CQM 22185.83174340  .00000184  00000-0  11579-3 0  9991
2 32095  98.7510 218.1015 0082063  84.9524 276.1010 14.13826718770440
Source of the keplerian elements: AFSPC